Location: Shenandoah County Park
(38.9356°N, 78.4524°W)
Time: 14:20:50
(UTC-05:00)

Vanguard 2 Rocket - Pass Details

Date: 07 December 2023
Orbit: 555 x 3309 km, 32.9° (Epoch: 03 March)

Event Time Altitude Azimuth Distance (km) Brightness Sun altitude
Rises 10:19:55 0° 174° (S) 5,049 11.9 23.7°
Reaches altitude 10° 10:25:54 10° 149° (SSE) 4,682 12.5 24.2°
Maximum altitude 10:31:14 13° 126° (SE) 4,899 11.8 24.6°
Drops below altitude 10° 10:37:27 10° 103° (ESE) 5,628 11.5 25.1°
Sets 10:46:24 0° 82° (E) 7,105 11.6 25.7°
